| time (UTC) | temp C | wind direction | speed KPH | gust KPH | rain 1hr cm | rain 24hr cm | rain mn cm | humidity % | barometer mb |
| 20260505130131 | 12 | 128 | 0.0 | 9.7 | 0.00 | 0.00 | 0.00 | 81 | 1013.5 |
| 20260505124628 | 12 | 168 | 1.6 | 9.7 | 0.00 | 0.00 | 0.00 | 81 | 1013.2 |
| 20260505124127 | 12 | 172 | 3.2 | 8.0 | 0.00 | 0.00 | 0.00 | 81 | 1013.2 |
| 20260505123555 | 12 | 172 | 3.2 | 8.0 | 0.00 | 0.00 | 0.00 | 81 | 1013.2 |
| 20260505123054 | 12 | 152 | 3.2 | 11.3 | 0.00 | 0.00 | 0.00 | 81 | 1013.2 |
| 20260505122553 | 12 | 118 | 3.2 | 11.3 | 0.00 | 0.00 | 0.00 | 81 | 1013.2 |
| 20260505122020 | 12 | 158 | 4.8 | 11.3 | 0.00 | 0.00 | 0.00 | 81 | 1013.2 |
| 20260505121520 | 12 | 150 | 4.8 | 11.3 | 0.00 | 0.00 | 0.00 | 81 | 1013.2 |
| 20260505121018 | 12 | 131 | 1.6 | 4.8 | 0.00 | 0.00 | 0.00 | 82 | 1013.2 |
| 20260505120446 | 12 | 184 | 0.0 | 8.0 | 0.00 | 0.00 | 0.00 | 82 | 1013.2 |
| 20260505115946 | 12 | 206 | 0.0 | 8.0 | 0.00 | 0.00 | 0.00 | 82 | 1013.2 |
| 20260505115445 | 12 | 198 | 1.6 | 8.0 | 0.00 | 0.00 | 0.00 | 82 | 1013.2 |
| 20260505114944 | 12 | 161 | 1.6 | 9.7 | 0.00 | 0.00 | 0.00 | 82 | 1013.2 |
| 20260505114443 | 12 | 141 | 1.6 | 9.7 | 0.00 | 0.00 | 0.00 | 82 | 1013.2 |
| 20260505113942 | 12 | 170 | 0.0 | 9.7 | 0.00 | 0.00 | 0.00 | 82 | 1013.2 |
| 20260505113441 | 12 | 150 | 4.8 | 9.7 | 0.00 | 0.00 | 0.00 | 83 | 1013.2 |
| 20260505112940 | 12 | 117 | 3.2 | 11.3 | 0.00 | 0.00 | 0.00 | 83 | 1012.9 |
| 20260505112439 | 12 | 130 | 4.8 | 11.3 | 0.00 | 0.00 | 0.00 | 83 | 1012.9 |
| 20260505111938 | 12 | 133 | 3.2 | 11.3 | 0.00 | 0.00 | 0.00 | 83 | 1012.9 |
| 20260505111438 | 12 | 99 | 1.6 | 11.3 | 0.00 | 0.00 | 0.00 | 83 | 1012.9 |
| 20260505110937 | 12 | 158 | 0.0 | 11.3 | 0.00 | 0.00 | 0.00 | 83 | 1012.9 |
| 20260505110436 | 12 | 173 | 1.6 | 11.3 | 0.00 | 0.00 | 0.00 | 83 | 1012.9 |
| 20260505101857 | 12 | 130 | 3.2 | 8.0 | 0.00 | 0.00 | 0.00 | 84 | 1012.5 |
| 20260505101325 | 12 | 189 | 3.2 | 8.0 | 0.00 | 0.00 | 0.00 | 84 | 1012.5 |
| 20260505100823 | 12 | 111 | 3.2 | 6.4 | 0.00 | 0.00 | 0.00 | 84 | 1012.5 |
| 20260505100322 | 12 | 158 | 1.6 | 4.8 | 0.00 | 0.00 | 0.00 | 84 | 1012.5 |
| 20260505095822 | 12 | 129 | 1.6 | 4.8 | 0.00 | 0.00 | 0.00 | 84 | 1012.5 |
| 20260505095218 | 12 | 139 | 0.0 | 4.8 | 0.00 | 0.00 | 0.00 | 84 | 1012.5 |
| 20260505094646 | 12 | 114 | 1.6 | 4.8 | 0.00 | 0.00 | 0.00 | 84 | 1012.2 |
| 20260505094144 | 12 | 155 | 3.2 | 4.8 | 0.00 | 0.00 | 0.00 | 84 | 1012.2 |
| 20260505093643 | 12 | 137 | 1.6 | 1.6 | 0.00 | 0.00 | 0.00 | 84 | 1012.2 |
| 20260505093111 | 12 | 135 | 0.0 | 1.6 | 0.00 | 0.00 | 0.00 | 84 | 1012.2 |
| 20260505092611 | 12 | 135 | 0.0 | 1.6 | 0.00 | 0.00 | 0.00 | 84 | 1012.2 |
| 20260505092110 | 12 | 156 | 0.0 | 0.0 | 0.00 | 0.00 | 0.00 | 83 | 1012.2 |
| 20260505091609 | 12 | 156 | 0.0 | 4.8 | 0.00 | 0.00 | 0.00 | 83 | 1011.9 |
| 20260505091108 | 12 | 156 | 0.0 | 4.8 | 0.00 | 0.00 | 0.00 | 83 | 1011.9 |
| 20260505090607 | 12 | 156 | 0.0 | 4.8 | 0.00 | 0.00 | 0.00 | 83 | 1011.9 |
| 20260505090107 | 12 | 142 | 3.2 | 3.2 | 0.00 | 0.00 | 0.00 | 83 | 1011.9 |
| 20260505085606 | 12 | 165 | 0.0 | 3.2 | 0.00 | 0.00 | 0.00 | 83 | 1011.9 |
| 20260505085034 | 12 | 165 | 0.0 | 3.2 | 0.00 | 0.00 | 0.00 | 83 | 1011.9 |
| 20260505084501 | 12 | 152 | 0.0 | 3.2 | 0.00 | 0.00 | 0.00 | 83 | 1011.9 |
| 20260505084001 | 12 | 101 | 0.0 | 3.2 | 0.00 | 0.00 | 0.00 | 83 | 1011.9 |
| 20260505083326 | 13 | 104 | 1.6 | 3.2 | 0.00 | 0.00 | 0.00 | 82 | 1011.9 |
| 20260505082826 | 13 | 152 | 1.6 | 3.2 | 0.00 | 0.00 | 0.00 | 82 | 1011.9 |
| 20260505082325 | 13 | 113 | 0.0 | 0.0 | 0.00 | 0.00 | 0.00 | 82 | 1011.9 |
| 20260505081825 | 13 | 113 | 0.0 | 0.0 | 0.00 | 0.00 | 0.00 | 82 | 1011.9 |
| 20260505081324 | 13 | 113 | 0.0 | 3.2 | 0.00 | 0.00 | 0.00 | 81 | 1011.5 |
| 20260505080823 | 13 | 113 | 0.0 | 3.2 | 0.00 | 0.00 | 0.00 | 81 | 1011.5 |
| 20260505080322 | 13 | 113 | 0.0 | 4.8 | 0.00 | 0.00 | 0.00 | 81 | 1011.5 |
| 20260505075820 | 13 | 129 | 1.6 | 4.8 | 0.00 | 0.00 | 0.00 | 81 | 1011.5 |
| 20260505075320 | 13 | 193 | 0.0 | 4.8 | 0.00 | 0.00 | 0.00 | 80 | 1011.5 |
| 20260505074819 | 13 | 130 | 3.2 | 4.8 | 0.00 | 0.00 | 0.00 | 80 | 1011.5 |
| 20260505074318 | 13 | 139 | 1.6 | 1.6 | 0.00 | 0.00 | 0.00 | 80 | 1011.5 |
| 20260505073817 | 13 | 139 | 0.0 | 3.2 | 0.00 | 0.00 | 0.00 | 80 | 1011.5 |
| 20260505073316 | 13 | 207 | 0.0 | 3.2 | 0.00 | 0.00 | 0.00 | 79 | 1011.5 |
| 20260505072815 | 13 | 180 | 1.6 | 3.2 | 0.00 | 0.00 | 0.00 | 79 | 1011.5 |
| 20260505072314 | 13 | 176 | 0.0 | 3.2 | 0.00 | 0.00 | 0.00 | 79 | 1011.2 |
| 20260505071813 | 14 | 164 | 0.0 | 3.2 | 0.00 | 0.00 | 0.00 | 79 | 1011.2 |
| 20260505071312 | 14 | 110 | 1.6 | 3.2 | 0.00 | 0.00 | 0.00 | 78 | 1011.2 |
| 20260505070811 | 14 | 127 | 0.0 | 3.2 | 0.00 | 0.00 | 0.00 | 78 | 1011.2 |
| 20260505070239 | 14 | 196 | 1.6 | 3.2 | 0.00 | 0.00 | 0.00 | 78 | 1011.2 |
| 20260505065737 | 14 | 131 | 0.0 | 9.7 | 0.00 | 0.00 | 0.00 | 77 | 1010.8 |
| 20260505065236 | 15 | 131 | 0.0 | 9.7 | 0.00 | 0.00 | 0.00 | 77 | 1010.8 |
| 20260505064735 | 15 | 131 | 0.0 | 9.7 | 0.00 | 0.00 | 0.00 | 77 | 1010.8 |
| 20260505064204 | 15 | 150 | 3.2 | 9.7 | 0.00 | 0.00 | 0.00 | 76 | 1010.8 |
| 20260505063702 | 15 | 193 | 1.6 | 9.7 | 0.00 | 0.00 | 0.00 | 76 | 1010.8 |
| 20260505063201 | 15 | 220 | 3.2 | 9.7 | 0.00 | 0.00 | 0.00 | 75 | 1010.8 |
| 20260505062700 | 15 | 113 | 4.8 | 9.7 | 0.00 | 0.00 | 0.00 | 75 | 1010.8 |
| 20260505062159 | 15 | 107 | 1.6 | 6.4 | 0.00 | 0.00 | 0.00 | 74 | 1010.5 |
| 20260505061658 | 15 | 174 | 0.0 | 6.4 | 0.00 | 0.00 | 0.00 | 74 | 1010.5 |
| 20260505061157 | 15 | 105 | 0.0 | 6.4 | 0.00 | 0.00 | 0.00 | 74 | 1010.5 |
| 20260505060657 | 16 | 156 | 3.2 | 6.4 | 0.00 | 0.00 | 0.00 | 73 | 1010.5 |
| 20260505060156 | 16 | 169 | 3.2 | 8.0 | 0.00 | 0.00 | 0.00 | 73 | 1010.5 |
| 20260505055655 | 16 | 51 | 0.0 | 8.0 | 0.00 | 0.00 | 0.00 | 73 | 1010.2 |
| 20260505055154 | 16 | 14 | 1.6 | 8.0 | 0.00 | 0.00 | 0.00 | 72 | 1010.2 |
| 20260505054653 | 16 | 141 | 3.2 | 8.0 | 0.00 | 0.00 | 0.00 | 71 | 1010.2 |
| 20260505054153 | 17 | 124 | 1.6 | 6.4 | 0.00 | 0.00 | 0.00 | 71 | 1010.2 |
| 20260505053652 | 17 | 162 | 3.2 | 6.4 | 0.00 | 0.00 | 0.00 | 71 | 1010.2 |
| 20260505053151 | 17 | 233 | 0.0 | 1.6 | 0.00 | 0.00 | 0.00 | 71 | 1010.2 |
| 20260505052650 | 17 | 233 | 0.0 | 1.6 | 0.00 | 0.00 | 0.00 | 70 | 1010.2 |
| 20260505052148 | 17 | 233 | 0.0 | 1.6 | 0.00 | 0.00 | 0.00 | 70 | 1009.8 |
| 20260505051617 | 17 | 233 | 0.0 | 1.6 | 0.00 | 0.00 | 0.00 | 69 | 1009.8 |
| 20260505051116 | 17 | 226 | 0.0 | 0.0 | 0.00 | 0.00 | 0.00 | 69 | 1009.8 |
| 20260505050616 | 17 | 226 | 0.0 | 4.8 | 0.00 | 0.00 | 0.00 | 68 | 1009.8 |
| 20260505050115 | 17 | 226 | 0.0 | 9.7 | 0.00 | 0.00 | 0.00 | 68 | 1009.8 |
| 20260505041536 | 20 | 229 | 0.0 | 4.8 | 0.00 | 0.00 | 0.00 | 63 | 1009.1 |
| 20260505041004 | 20 | 225 | 3.2 | 6.4 | 0.00 | 0.00 | 0.00 | 62 | 1009.1 |
| 20260505040432 | 20 | 138 | 3.2 | 6.4 | 0.00 | 0.00 | 0.00 | 62 | 1009.1 |
| 20260505035931 | 20 | 192 | 0.0 | 6.4 | 0.00 | 0.00 | 0.00 | 61 | 1009.1 |
| 20260505035431 | 20 | 273 | 3.2 | 6.4 | 0.00 | 0.00 | 0.00 | 60 | 1008.8 |
| 20260505034930 | 20 | 117 | 1.6 | 11.3 | 0.00 | 0.00 | 0.00 | 60 | 1008.8 |
| 20260505034429 | 21 | 145 | 0.0 | 11.3 | 0.00 | 0.00 | 0.00 | 59 | 1008.8 |
| 20260505033928 | 21 | 146 | 3.2 | 11.3 | 0.00 | 0.00 | 0.00 | 58 | 1008.5 |
| 20260505033427 | 21 | 132 | 1.6 | 11.3 | 0.00 | 0.00 | 0.00 | 57 | 1008.5 |
| 20260505032927 | 21 | 272 | 3.2 | 12.9 | 0.00 | 0.00 | 0.00 | 56 | 1008.5 |
| 20260505032426 | 21 | 279 | 6.4 | 12.9 | 0.00 | 0.00 | 0.00 | 55 | 1008.5 |
| 20260505031926 | 22 | 271 | 3.2 | 12.9 | 0.00 | 0.00 | 0.00 | 54 | 1008.1 |
| 20260505031425 | 22 | 264 | 3.2 | 9.7 | 0.00 | 0.00 | 0.00 | 53 | 1008.1 |
| 20260505030924 | 22 | 282 | 6.4 | 9.7 | 0.00 | 0.00 | 0.00 | 52 | 1008.1 |
| 20260505030424 | 22 | 274 | 3.2 | 9.7 | 0.00 | 0.00 | 0.00 | 51 | 1008.1 |
| 20260505025923 | 23 | 266 | 4.8 | 9.7 | 0.00 | 0.00 | 0.00 | 50 | 1008.1 |
| 20260505025350 | 23 | 272 | 4.8 | 9.7 | 0.00 | 0.00 | 0.00 | 49 | 1008.1 |
| 20260505024850 | 23 | 272 | 3.2 | 9.7 | 0.00 | 0.00 | 0.00 | 49 | 1008.1 |
| 20260505024349 | 24 | 263 | 1.6 | 8.0 | 0.00 | 0.00 | 0.00 | 48 | 1007.8 |
| 20260505023848 | 24 | 269 | 3.2 | 9.7 | 0.00 | 0.00 | 0.00 | 47 | 1007.8 |
| 20260505023245 | 25 | 256 | 3.2 | 11.3 | 0.00 | 0.00 | 0.00 | 47 | 1007.8 |
| 20260505022744 | 25 | 284 | 3.2 | 12.9 | 0.00 | 0.00 | 0.00 | 46 | 1007.8 |
| 20260505022243 | 25 | 264 | 3.2 | 12.9 | 0.00 | 0.00 | 0.00 | 46 | 1007.8 |
| 20260505021742 | 25 | 265 | 4.8 | 12.9 | 0.00 | 0.00 | 0.00 | 45 | 1007.8 |
| 20260505021242 | 26 | 276 | 6.4 | 12.9 | 0.00 | 0.00 | 0.00 | 44 | 1007.8 |
| 20260505020710 | 26 | 257 | 1.6 | 9.7 | 0.00 | 0.00 | 0.00 | 44 | 1007.8 |
| 20260505020209 | 26 | 256 | 4.8 | 9.7 | 0.00 | 0.00 | 0.00 | 43 | 1007.8 |
| 20260505015708 | 26 | 267 | 3.2 | 9.7 | 0.00 | 0.00 | 0.00 | 41 | 1007.8 |
| 20260505015207 | 26 | 261 | 3.2 | 9.7 | 0.00 | 0.00 | 0.00 | 41 | 1007.8 |
| 20260505014706 | 27 | 269 | 4.8 | 8.0 | 0.00 | 0.00 | 0.00 | 40 | 1007.8 |
| 20260505014205 | 27 | 279 | 3.2 | 8.0 | 0.00 | 0.00 | 0.00 | 38 | 1007.8 |
| 20260505013704 | 27 | 269 | 3.2 | 9.7 | 0.00 | 0.00 | 0.00 | 38 | 1007.8 |
| 20260505013204 | 27 | 248 | 0.0 | 9.7 | 0.00 | 0.00 | 0.00 | 38 | 1007.8 |
| 20260505012702 | 27 | 263 | 1.6 | 9.7 | 0.00 | 0.00 | 0.00 | 37 | 1007.8 |
| 20260505012130 | 27 | 275 | 4.8 | 9.7 | 0.00 | 0.00 | 0.00 | 37 | 1007.8 |
| 20260505011558 | 27 | 279 | 1.6 | 6.4 | 0.00 | 0.00 | 0.00 | 37 | 1007.8 |
| 20260505011058 | 27 | 287 | 1.6 | 8.0 | 0.00 | 0.00 | 0.00 | 38 | 1007.8 |
| 20260505010526 | 27 | 273 | 3.2 | 8.0 | 0.00 | 0.00 | 0.00 | 37 | 1007.8 |
| 20260505010026 | 27 | 288 | 3.2 | 8.0 | 0.00 | 0.00 | 0.00 | 37 | 1007.8 |
| 20260505005524 | 27 | 273 | 6.4 | 8.0 | 0.00 | 0.00 | 0.00 | 36 | 1008.1 |
| 20260505005023 | 27 | 259 | 3.2 | 6.4 | 0.00 | 0.00 | 0.00 | 35 | 1007.8 |
| 20260505004522 | 27 | 270 | 3.2 | 6.4 | 0.00 | 0.00 | 0.00 | 35 | 1007.8 |
| 20260505003919 | 27 | 210 | 3.2 | 6.4 | 0.00 | 0.00 | 0.00 | 35 | 1008.1 |
| 20260505003418 | 27 | 278 | 1.6 | 6.4 | 0.00 | 0.00 | 0.00 | 36 | 1008.1 |
| 20260505002917 | 27 | 273 | 3.2 | 6.4 | 0.00 | 0.00 | 0.00 | 37 | 1008.1 |
| 20260505002416 | 27 | 286 | 1.6 | 6.4 | 0.00 | 0.00 | 0.00 | 36 | 1008.1 |
| 20260505001916 | 27 | 278 | 3.2 | 6.4 | 0.00 | 0.00 | 0.00 | 36 | 1008.1 |
| 20260505001415 | 27 | 132 | 1.6 | 8.0 | 0.00 | 0.00 | 0.00 | 35 | 1008.1 |
| 20260505000914 | 27 | 232 | 0.0 | 11.3 | 0.00 | 0.00 | 0.00 | 36 | 1008.1 |
| 20260505000413 | 27 | 287 | 1.6 | 11.3 | 0.00 | 0.00 | 0.00 | 37 | 1008.1 |
| 20260504235912 | 27 | 263 | 3.2 | 11.3 | 0.00 | 0.00 | 0.00 | 36 | 1008.1 |
| 20260504235309 | 27 | 273 | 6.4 | 11.3 | 0.00 | 0.00 | 0.00 | 36 | 1008.1 |
| 20260504234808 | 27 | 281 | 6.4 | 9.7 | 0.00 | 0.00 | 0.00 | 35 | 1008.1 |
| 20260504234307 | 27 | 131 | 3.2 | 9.7 | 0.00 | 0.00 | 0.00 | 35 | 1008.1 |
| 20260504233806 | 27 | 267 | 4.8 | 9.7 | 0.00 | 0.00 | 0.00 | 34 | 1008.5 |
| 20260504233132 | 27 | 221 | 1.6 | 9.7 | 0.00 | 0.00 | 0.00 | 34 | 1008.1 |
| 20260504232631 | 27 | 227 | 1.6 | 9.7 | 0.00 | 0.00 | 0.00 | 34 | 1008.1 |
| 20260504232130 | 27 | 274 | 3.2 | 9.7 | 0.00 | 0.00 | 0.00 | 35 | 1008.5 |
| 20260504231559 | 27 | 271 | 4.8 | 9.7 | 0.00 | 0.00 | 0.00 | 35 | 1008.5 |
| 20260504231027 | 27 | 279 | 6.4 | 9.7 | 0.00 | 0.00 | 0.00 | 34 | 1008.1 |
| 20260504230455 | 27 | 273 | 4.8 | 9.7 | 0.00 | 0.00 | 0.00 | 32 | 1008.1 |
| 20260504225954 | 27 | 151 | 3.2 | 9.7 | 0.00 | 0.00 | 0.00 | 32 | 1008.5 |
| 20260504225452 | 27 | 268 | 4.8 | 9.7 | 0.00 | 0.00 | 0.00 | 32 | 1008.5 |
| 20260504224951 | 27 | 201 | 3.2 | 8.0 | 0.00 | 0.00 | 0.00 | 32 | 1008.5 |
| 20260504224450 | 27 | 227 | 3.2 | 9.7 | 0.00 | 0.00 | 0.00 | 31 | 1008.5 |
| 20260504223949 | 27 | 144 | 4.8 | 11.3 | 0.00 | 0.00 | 0.00 | 30 | 1008.8 |
| 20260504223448 | 27 | 241 | 3.2 | 11.3 | 0.00 | 0.00 | 0.00 | 31 | 1008.5 |
| 20260504222948 | 26 | 195 | 4.8 | 11.3 | 0.00 | 0.00 | 0.00 | 32 | 1008.8 |
| 20260504222416 | 26 | 183 | 1.6 | 11.3 | 0.00 | 0.00 | 0.00 | 32 | 1008.8 |
| 20260504221844 | 26 | 146 | 1.6 | 11.3 | 0.00 | 0.00 | 0.00 | 32 | 1009.1 |
| 20260504221343 | 26 | 259 | 3.2 | 8.0 | 0.00 | 0.00 | 0.00 | 32 | 1009.1 |
| 20260504220842 | 26 | 271 | 4.8 | 11.3 | 0.00 | 0.00 | 0.00 | 32 | 1009.1 |
| 20260504220341 | 26 | 280 | 3.2 | 12.9 | 0.00 | 0.00 | 0.00 | 34 | 1009.1 |
| 20260504215840 | 26 | 290 | 0.0 | 12.9 | 0.00 | 0.00 | 0.00 | 35 | 1009.1 |
| 20260504215308 | 26 | 206 | 3.2 | 17.7 | 0.00 | 0.00 | 0.00 | 39 | 1009.1 |
| 20260504214735 | 25 | 281 | 3.2 | 17.7 | 0.00 | 0.00 | 0.00 | 38 | 1009.1 |
| 20260504214234 | 25 | 237 | 4.8 | 17.7 | 0.00 | 0.00 | 0.00 | 38 | 1009.1 |
| 20260504213734 | 25 | 274 | 4.8 | 17.7 | 0.00 | 0.00 | 0.00 | 40 | 1009.1 |
| 20260504213202 | 26 | 268 | 6.4 | 11.3 | 0.00 | 0.00 | 0.00 | 37 | 1009.5 |
| 20260504212629 | 26 | 261 | 6.4 | 12.9 | 0.00 | 0.00 | 0.00 | 38 | 1009.1 |
| 20260504212129 | 26 | 208 | 3.2 | 12.9 | 0.00 | 0.00 | 0.00 | 35 | 1009.5 |
| 20260504211628 | 26 | 211 | 3.2 | 12.9 | 0.00 | 0.00 | 0.00 | 32 | 1009.5 |
| 20260504211056 | 26 | 172 | 4.8 | 12.9 | 0.00 | 0.00 | 0.00 | 30 | 1009.5 |
| 20260504210555 | 26 | 161 | 6.4 | 11.3 | 0.00 | 0.00 | 0.00 | 33 | 1009.5 |
| 20260504210055 | 26 | 199 | 1.6 | 11.3 | 0.00 | 0.00 | 0.00 | 35 | 1009.5 |
| 20260504205554 | 26 | 151 | 3.2 | 11.3 | 0.00 | 0.00 | 0.00 | 35 | 1009.5 |
| 20260504205053 | 26 | 255 | 3.2 | 11.3 | 0.00 | 0.00 | 0.00 | 34 | 1009.5 |
| 20260504204552 | 26 | 255 | 3.2 | 9.7 | 0.00 | 0.00 | 0.00 | 34 | 1009.5 |
| 20260504204051 | 26 | 178 | 3.2 | 11.3 | 0.00 | 0.00 | 0.00 | 34 | 1009.5 |
| 20260504203550 | 26 | 260 | 4.8 | 11.3 | 0.00 | 0.00 | 0.00 | 34 | 1009.5 |
| 20260504203049 | 26 | 183 | 1.6 | 11.3 | 0.00 | 0.00 | 0.00 | 34 | 1009.5 |
| 20260504202548 | 26 | 267 | 4.8 | 11.3 | 0.00 | 0.00 | 0.00 | 36 | 1009.5 |
| 20260504202047 | 26 | 152 | 4.8 | 9.7 | 0.00 | 0.00 | 0.00 | 35 | 1009.5 |
| 20260504201546 | 25 | 188 | 3.2 | 9.7 | 0.00 | 0.00 | 0.00 | 39 | 1009.5 |
| 20260504201046 | 25 | 110 | 3.2 | 11.3 | 0.00 | 0.00 | 0.00 | 38 | 1009.5 |
| 20260504200545 | 25 | 162 | 4.8 | 11.3 | 0.00 | 0.00 | 0.00 | 39 | 1009.5 |
| 20260504200044 | 25 | 149 | 3.2 | 11.3 | 0.00 | 0.00 | 0.00 | 38 | 1009.5 |
| 20260504195543 | 25 | 196 | 3.2 | 11.3 | 0.00 | 0.00 | 0.00 | 39 | 1009.5 |
| 20260504195043 | 25 | 280 | 4.8 | 9.7 | 0.00 | 0.00 | 0.00 | 37 | 1009.5 |
| 20260504194542 | 25 | 120 | 4.8 | 9.7 | 0.00 | 0.00 | 0.00 | 34 | 1009.5 |
| 20260504194041 | 25 | 231 | 1.6 | 8.0 | 0.00 | 0.00 | 0.00 | 35 | 1009.5 |
| 20260504193540 | 25 | 154 | 1.6 | 8.0 | 0.00 | 0.00 | 0.00 | 35 | 1009.5 |
| 20260504193039 | 25 | 257 | 3.2 | 8.0 | 0.00 | 0.00 | 0.00 | 36 | 1009.5 |
| 20260504192538 | 25 | 111 | 3.2 | 8.0 | 0.00 | 0.00 | 0.00 | 35 | 1009.5 |
| 20260504192038 | 25 | 219 | 3.2 | 8.0 | 0.00 | 0.00 | 0.00 | 34 | 1009.5 |
| 20260504191537 | 25 | 206 | 3.2 | 8.0 | 0.00 | 0.00 | 0.00 | 35 | 1009.8 |
| 20260504191036 | 25 | 264 | 3.2 | 8.0 | 0.00 | 0.00 | 0.00 | 35 | 1009.8 |
| 20260504190535 | 25 | 278 | 3.2 | 8.0 | 0.00 | 0.00 | 0.00 | 37 | 1009.8 |
| 20260504190035 | 25 | 121 | 1.6 | 4.8 | 0.00 | 0.00 | 0.00 | 38 | 1009.8 |
| 20260504185534 | 25 | 223 | 3.2 | 4.8 | 0.00 | 0.00 | 0.00 | 38 | 1009.8 |
| 20260504185033 | 23 | 256 | 1.6 | 4.8 | 0.00 | 0.00 | 0.00 | 42 | 1009.8 |
| 20260504184501 | 23 | 193 | 1.6 | 4.8 | 0.00 | 0.00 | 0.00 | 43 | 1009.8 |
| 20260504184000 | 22 | 45 | 1.6 | 4.8 | 0.00 | 0.00 | 0.00 | 48 | 1009.8 |
| 20260504183500 | 22 | 57 | 3.2 | 6.4 | 0.00 | 0.00 | 0.00 | 52 | 1009.8 |
| 20260504182959 | 22 | 36 | 3.2 | 6.4 | 0.00 | 0.00 | 0.00 | 52 | 1009.8 |
| 20260504182458 | 21 | 41 | 3.2 | 6.4 | 0.00 | 0.00 | 0.00 | 54 | 1009.8 |
| 20260504181957 | 21 | 38 | 4.8 | 6.4 | 0.00 | 0.00 | 0.00 | 53 | 1009.8 |
| 20260504181456 | 21 | 41 | 3.2 | 6.4 | 0.00 | 0.00 | 0.00 | 56 | 1009.8 |
| 20260504180924 | 21 | 37 | 3.2 | 6.4 | 0.00 | 0.00 | 0.00 | 56 | 1009.8 |
| 20260504180423 | 21 | 33 | 4.8 | 6.4 | 0.00 | 0.00 | 0.00 | 56 | 1009.8 |
| 20260504175923 | 21 | 36 | 3.2 | 4.8 | 0.00 | 0.00 | 0.00 | 57 | 1009.8 |
| 20260504175422 | 21 | 44 | 3.2 | 4.8 | 0.00 | 0.00 | 0.00 | 58 | 1009.8 |
| 20260504174921 | 21 | 45 | 3.2 | 4.8 | 0.00 | 0.00 | 0.00 | 58 | 1010.2 |
| 20260504174421 | 20 | 59 | 1.6 | 3.2 | 0.00 | 0.00 | 0.00 | 61 | 1010.2 |
| 20260504173849 | 20 | 41 | 1.6 | 4.8 | 0.00 | 0.00 | 0.00 | 61 | 1009.8 |
| 20260504173347 | 20 | 41 | 1.6 | 4.8 | 0.00 | 0.00 | 0.00 | 59 | 1009.8 |
| 20260504172846 | 20 | 44 | 1.6 | 4.8 | 0.00 | 0.00 | 0.00 | 60 | 1010.2 |
| 20260504172346 | 20 | 43 | 3.2 | 4.8 | 0.00 | 0.00 | 0.00 | 61 | 1010.2 |
| 20260504171845 | 20 | 58 | 1.6 | 4.8 | 0.00 | 0.00 | 0.00 | 62 | 1010.2 |
| 20260504171344 | 20 | 50 | 3.2 | 4.8 | 0.00 | 0.00 | 0.00 | 62 | 1010.2 |
| 20260504170843 | 19 | 54 | 1.6 | 3.2 | 0.00 | 0.00 | 0.00 | 62 | 1009.8 |
| 20260504170311 | 19 | 50 | 3.2 | 3.2 | 0.00 | 0.00 | 0.00 | 64 | 1009.8 |
| 20260504160228 | 16 | 113 | 0.0 | 1.6 | 0.00 | 0.00 | 0.00 | 76 | 1009.8 |
| 20260504150914 | 14 | 248 | 0.0 | 0.0 | 0.00 | 0.00 | 0.00 | 78 | 1009.8 |
| 20260504150413 | 13 | 248 | 0.0 | 0.0 | 0.00 | 0.00 | 0.00 | 79 | 1009.5 |
| 20260504141335 | 10 | 248 | 0.0 | 0.0 | 0.00 | 0.00 | 0.00 | 87 | 1009.5 |
| 20260504140833 | 10 | 248 | 0.0 | 0.0 | 0.00 | 0.00 | 0.00 | 87 | 1009.5 |
| 20260504140332 | 10 | 248 | 0.0 | 0.0 | 0.00 | 0.00 | 0.00 | 87 | 1009.1 |